User: anonymous   Login
Location: Newark
(48.3453°N, 0.5589°E)
Time: 16:11:54
(UTC+00:00)
Language:

Vanguard 2 Rocket - Orbit

View from above orbital plane
View from above orbital plane
View from above satellite
View from above satellite

Ground track
Ground track

The orbit data is extracted from the following two-line orbital elements,

1    12U 59001B   19339.85631894 +.00000013 +00000-0 +54955-5 0  9994
2    12 032.9002 311.7891 1666101 132.8755 242.4339 11.44316276257683
Epoch (UTC): 05 December 2019 20:33:05
Eccentricity: 0.1666101
inclination: 32.9002°
perigee height: 554 km
apogee height: 3326 km
right ascension of ascending node: 311.7891°
argument of perigee: 132.8755°
revolutions per day: 11.44316276
mean anomaly at epoch: 242.4339°
orbit number at epoch: 25768

The dashed part of the orbit path shows where the satellite is in the earth's shadow,  

DLR